Satellite: NOAA-12
Catalog number: 21263
Epoch time:      10342.75564861
Element set:    0804
Inclination:      098.7586 deg
RA of node:       355.8540 deg
Eccentricity:    0.0012743
Arg of perigee:   024.1601 deg
Mean anomaly:     336.0157 deg
Mean motion:   14.25671962 rev/day
Decay rate:       -2.7e-07 rev/day^2
Epoch rev:           01727
Checksum:              291

Satellite: MET-3/5
Catalog number: 21655
Epoch time:      10342.90840334
Element set:    0984
Inclination:      082.5551 deg
RA of node:       185.1936 deg
Eccentricity:    0.0012417
Arg of perigee:   273.9618 deg
Mean anomaly:     086.0095 deg
Mean motion:   13.17028379 rev/day
Decay rate:        5.1e-07 rev/day^2
Epoch rev:           92867
Checksum:              317

Satellite: MET-2/21
Catalog number: 22782
Epoch time:      10342.85610294
Element set:    0960
Inclination:      082.5467 deg
RA of node:       113.8869 deg
Eccentricity:    0.0020918
Arg of perigee:   273.3319 deg
Mean anomaly:     086.5466 deg
Mean motion:   13.83651279 rev/day
Decay rate:        3.0e-07 rev/day^2
Epoch rev:           87223
Checksum:              318

Satellite: OKEAN-4
Catalog number: 23317
Epoch time:      10342.75446689
Element set:    0415
Inclination:      082.5394 deg
RA of node:       190.9152 deg
Eccentricity:    0.0023115
Arg of perigee:   030.2318 deg
Mean anomaly:     330.0228 deg
Mean motion:   14.82905518 rev/day
Decay rate:       2.60e-06 rev/day^2
Epoch rev:           87232
Checksum:              277

Satellite: NOAA-14
Catalog number: 23455
Epoch time:      10342.80511560
Element set:    0294
Inclination:      098.8677 deg
RA of node:       062.2271 deg
Eccentricity:    0.0010247
Arg of perigee:   098.9951 deg
Mean anomaly:     261.2372 deg
Mean motion:   14.13802646 rev/day
Decay rate:        2.0e-07 rev/day^2
Epoch rev:           82217
Checksum:              286

Satellite: NOAA-15
Catalog number: 25338
Epoch time:      10343.42927909
Element set:     624
Inclination:      098.6376 deg
RA of node:       327.3744 deg
Eccentricity:    0.0009840
Arg of perigee:   286.8180 deg
Mean anomaly:     073.1947 deg
Mean motion:   14.24871364 rev/day
Decay rate:       1.17e-06 rev/day^2
Epoch rev:           65370
Checksum:              326

Satellite: RESURS
Catalog number: 25394
Epoch time:      10342.57918893
Element set:    0671
Inclination:      098.2995 deg
RA of node:       351.1178 deg
Eccentricity:    0.0002436
Arg of perigee:   071.4793 deg
Mean anomaly:     288.6649 deg
Mean motion:   14.24218219 rev/day
Decay rate:        1.7e-07 rev/day^2
Epoch rev:           64517
Checksum:              329

Satellite: FENGYUN1
Catalog number: 25730
Epoch time:      10342.79795248
Element set:    0204
Inclination:      098.8020 deg
RA of node:       303.3569 deg
Eccentricity:    0.0020278
Arg of perigee:   127.4571 deg
Mean anomaly:     232.8445 deg
Mean motion:   14.08464641 rev/day
Decay rate:      1.239e-05 rev/day^2
Epoch rev:           59626
Checksum:              304

Satellite: OKEAN-0
Catalog number: 25860
Epoch time:      10343.66411225
Element set:     171
Inclination:      097.8576 deg
RA of node:       310.6396 deg
Eccentricity:    0.0000693
Arg of perigee:   100.4869 deg
Mean anomaly:     259.6406 deg
Mean motion:   14.73690447 rev/day
Decay rate:        9.6e-07 rev/day^2
Epoch rev:           61274
Checksum:              307

Satellite: NOAA-16
Catalog number: 26536
Epoch time:      10343.39322465
Element set:     102
Inclination:      099.1599 deg
RA of node:       004.9062 deg
Eccentricity:    0.0010412
Arg of perigee:   201.8480 deg
Mean anomaly:     158.2246 deg
Mean motion:   14.12590185 rev/day
Decay rate:       2.55e-06 rev/day^2
Epoch rev:           52656
Checksum:              281

Satellite: NOAA-17
Catalog number: 27453
Epoch time:      10342.79164106
Element set:    0094
Inclination:      098.4089 deg
RA of node:       025.9922 deg
Eccentricity:    0.0011540
Arg of perigee:   351.9183 deg
Mean anomaly:     008.1783 deg
Mean motion:   14.24217272 rev/day
Decay rate:       2.50e-06 rev/day^2
Epoch rev:           43955
Checksum:              296

Satellite: NOAA-18
Catalog number: 28654
Epoch time:      10342.83521298
Element set:    0582
Inclination:      098.9732 deg
RA of node:       288.7702 deg
Eccentricity:    0.0013597
Arg of perigee:   282.2874 deg
Mean anomaly:     077.6783 deg
Mean motion:   14.11417072 rev/day
Decay rate:       3.95e-06 rev/day^2
Epoch rev:           28607
Checksum:              343

Satellite: NOAA-19
Catalog number: 33591
Epoch time:      10342.86144618
Element set:    0775
Inclination:      098.8092 deg
RA of node:       281.4148 deg
Eccentricity:    0.0014456
Arg of perigee:   151.8484 deg
Mean anomaly:     208.3471 deg
Mean motion:   14.11108806 rev/day
Decay rate:      -1.42e-06 rev/day^2
Epoch rev:           09454
Checksum:              308

/EX
SB KEPS @ AMSAT  $ORB10343.M
Orbital Elements  10343.MISC

HR AMSAT ORBITAL ELEMENTS FOR MANNED AND MISCELLANEOUS SATELLITES
FROM WA5QGD FORT WORTH,TX December 9, 2010
Send Subscribe/unsubscribe to KEPS at http://www.amsat.org/mailman/listinfo/kep
BID: ORB10343.M
TO ALL RADIO AMATEURS BT

